SCP
0 0 0 0 0 0 -0 0 -0 -0 0 0 1 1 1 0 0 0 0 0 0 0 0 0 0 0 0 0 0 0 0 0 0 0 0 0 0 0 0 0 0 0 0
0 0 0 0 0 0 0 0 0 -0 0 0 0 1 1 1 0 0 0 0 0 0 0 0 0 0 0 0 0 0 0 0 0 0 0 0 0 0 0 0 0 0 0
0 0 0 0 0 0 0 0 0 0 0 0 0 1 1 0 0 0 0 0 0 0 0 0 0 0 0 0 0 0 0 0 0 0 0 0 0 0 0 0 0 0 0
0 0 -0 0 0 0 0 0 0 0 0 0 0 1 1 1 0 0 0 0 0 0 0 0 0 0 0 0 0 0 0 0 0 0 0 0 0 0 0 0 0 0 0
0 -0 0 0 0 0 0 0 0 0 0 0 0 1 1 1 0 0 0 0 0 0 0 0 0 0 0 0 0 0 0 0 0 0 0 0 0 0 0 0 0 0 0
0 0 0 0 0 0 0 0 0 0 0 0 0 1 1 0 0 0 0 0 0 0 0 0 0 0 0 0 0 0 0 0 0 0 0 0 0 0 0 0 0 0 0
0 0 0 0 0 0 0 0 0 0 0 0 0 1 1 0 0 0 0 0 0 0 0 0 0 0 0 0 0 0 0 0 0 0 0 0 0 0 0 0 0 0 0
0 0 0 0 0 0 0 0 0 0 0 0 1 0 1 1 0 0 0 0 0 0 0 0 0 0 0 0 0 0 0 0 0 0 0 0 0 0 0 0 0 0 0
0 -0 0 0 0 0 0 0 0 0 0 1 0 0 0 0 0 0 0 0 0 0 0 0 0 0 0 0 0 0 0 0 0 0 0 0 0 0 0 0 0 0 0
-0 -0 0 -0 0 0 0 0 0 0 0 0 0 0 0 0 0 0 0 0 0 0 0 0 0 0 0 0 0 0 0 0 0 0 0 0 0 0 0 0 0 0 0
-0 -0 -0 -0 0 0 0 0 0 0 0 0 0 0 0 0 0 0 0 0 0 0 0 0 0 0 0 0 0 0 0 0 0 0 0 0 0 0 0 0 0 0 0
-0 -0 -0 -0 0 0 0 0 0 0 0 0 0 0 0 0 0 0 0 0 0 0 0 0 0 0 0 0 0 0 0 0 0 0 0 0 0 0 0 0 0 0 0
-0 0 0 -0 0 0 0 0 0 0 0 0 0 0 0 0 0 0 0 0 0 0 0 0 0 0 0 0 0 0 0 0 0 0 0 0 0 0 0 0 0 0 0
-0 -0 -0 -0 0 0 0 0 0 0 0 0 0 0 0 0 0 0 0 0 0 0 0 0 0 0 0 0 0 0 0 0 0 0 0 0 0 0 0 0 0 0 0
-0 -0 -0 -0 -0 0 0 0 0 0 0 0 0 0 0 0 0 0 0 0 0 0 0 0 0 0 0 0 0 0 0 0 0 0 0 0 0 0 0 0 0 0 0
-0 -0 -0 -0 -0 0 0 0 0 0 0 0 0 0 0 0 0 0 0 0 0 0 0 0 0 0 0 0 0 0 0 0 0 0 0 0 0 0 0 0 0 0 0
-0 0 -0 0 -0 0 0 0 0 0 0 0 0 0 0 0 0 0 0 0 0 0 0 0 0 0 0 0 0 0 0 0 0 0 0 0 0 0 0 0 0 0 0
0 0 0 0 -0 0 0 0 0 0 0 0 0 0 0 0 0 0 0 0 0 0 0 0 0 0 0 0 0 0 0 0 0 0 0 0 0 0 0 0 0 0 0
0 0 0 0 0 0 0 0 0 0 0 0 0 0 0 0 0 0 0 0 0 0 0 0 0 0 0 0 0 0 0 0 0 0 0 0 0 0 0 0 0 0 0
0 0 0 0 0 0 0 0 0 0 0 0 0 0 0 0 0 0 0 0 0 0 0 0 0 0 0 0 0 0 0 0 0 0 0 0 0 0 0 0 0 0 0
0 0 0 0 0 0 0 0 0 0 0 0 0 0 0 0 0 0 0 0 0 0 0 0 0 0 0 0 0 0 0 0 0 0 0 0 0 0 0 0 0 0 0
0 -0 -0 -0 0 0 0 0 0 0 0 0 0 0 0 0 0 0 0 0 0 0 0 0 0 0 0 0 0 0 0 0 0 0 0 0 0 0 0 0 0 0 0
0 0 0 -0 -0 -0 -0 -0 -0 0 0 0 0 0 0 0 0 0 0 0 0 0 0 0 0 0 0 0 0 0 0 0 0 0 0 0 0 0 0 0 0 0 0
-0 0 0 -0 -0 -0 -0 -0 -0 -0 -0 -0 -0 -0 0 0 0 0 0 0 0 0 0 0 0 0 0 0 0 0 0 0 0 0 0 0 0 0 0 0 0 0 0
-0 -0 -0 -0 -0 -0 -0 -0 -0 -0 -0 -0 -0 -0 -0 -0 0 0 0 0 0 0 0 0 0 0 0 0 0 0 0 0 0 0 0 0 0 0 0 0 0 0 0
-0 -0 -0 -0 -0 -0 -0 -0 -0 -0 -0 -0 -0 -0 -0 -0 -0 -0 0 0 0 0 0 0 0 0 0 0 0 0 0 0 0 0 0 0 0 0 0 0 0 0 0
Wind_Speed_500mb
85 84 88 89 91 84 78 87 100 78 64 54 61 81 86 86 83 88 89 91 95 98 104 99 95 84 96 87 86 88 87 78 75 70 56 49 46 44 45 43 40 37 34
59 71 78 84 87 89 86 75 91 97 71 63 54 77 74 79 78 78 84 88 80 82 96 89 68 85 92 97 96 98 92 80 73 69 63 42 41 46 47 45 43 41 39
56 62 60 67 86 77 73 72 84 100 84 64 57 68 68 75 75 79 81 91 80 73 115 75 82 83 94 106 102 100 94 92 82 68 46 29 23 51 52 50 47 45 42
60 63 73 69 79 90 83 77 71 80 88 69 58 69 73 69 77 84 78 88 95 73 104 91 92 80 85 99 102 102 98 92 91 83 68 49 33 29 30 55 53 51 47
58 66 65 68 60 71 79 70 69 68 76 72 57 67 76 74 74 73 72 73 90 83 103 107 94 91 90 90 102 104 99 90 90 90 84 55 38 38 24 25 54 57 48
61 64 54 60 53 54 59 62 63 59 71 67 57 66 72 75 71 70 79 77 82 83 91 95 94 109 91 98 108 106 98 95 89 83 79 77 66 47 34 25 23 27 37
60 64 57 51 46 37 41 55 60 58 62 63 62 64 72 72 68 65 69 59 65 62 75 85 96 95 100 115 115 105 96 93 89 83 76 72 66 54 46 35 25 23 24
61 62 53 46 42 35 32 36 50 56 60 57 58 61 72 69 62 62 46 26 34 47 49 58 67 83 87 89 97 99 94 91 87 84 78 71 67 60 52 42 34 27 27
60 58 50 42 36 27 19 21 30 48 60 61 51 57 66 70 67 69 49 34 42 53 39 49 56 51 57 72 83 94 94 85 84 79 76 72 68 63 57 51 45 38 30
62 60 49 40 30 16 4 12 19 37 55 62 53 60 58 66 64 63 59 54 51 51 47 45 28 24 36 37 73 82 82 82 77 76 72 72 67 63 59 56 52 47 42
62 60 50 42 31 16 15 19 23 32 40 48 58 55 60 57 51 42 40 37 41 46 56 43 33 34 43 38 48 76 65 79 78 77 72 64 60 63 66 62 59 55 50
61 59 50 47 40 30 26 34 35 40 46 49 55 54 58 58 50 42 30 33 28 26 26 32 32 32 53 56 61 57 72 54 77 79 76 71 63 63 64 64 62 60 52
61 59 54 55 47 38 35 39 41 42 45 48 53 52 50 52 47 38 31 28 21 23 24 27 39 54 38 34 44 47 53 79 70 64 78 76 68 67 65 64 62 61 58
56 57 55 54 51 47 46 43 45 40 39 39 42 41 38 36 36 38 35 29 29 27 26 33 31 44 47 47 34 35 40 49 59 57 68 77 75 66 59 61 61 57 60
57 55 53 53 53 53 54 52 53 43 40 39 38 35 29 30 30 29 31 31 34 33 31 29 34 33 48 53 50 48 46 36 41 47 48 60 66 63 54 55 59 59 60
51 50 49 51 53 52 53 55 62 54 51 45 40 29 21 18 19 18 19 21 29 26 37 37 36 45 49 47 49 55 52 48 46 42 44 45 47 50 53 54 56 57 60
47 48 46 46 47 51 52 56 57 55 56 55 48 41 31 22 14 10 10 11 10 13 28 26 42 52 46 49 49 49 55 58 55 57 52 55 49 46 48 50 55 56 61
41 45 47 47 47 46 48 49 53 55 55 54 52 47 39 33 22 11 5 11 12 14 12 18 23 27 38 45 40 45 44 46 59 51 50 45 49 51 50 51 56 58 59
29 34 38 42 45 50 51 51 51 54 56 55 49 43 39 34 28 25 18 7 6 19 22 18 17 21 21 30 35 39 41 39 41 41 55 56 51 52 50 53 55 56 60
29 35 38 37 38 43 46 47 53 54 58 53 49 43 37 33 31 26 20 15 10 2 8 18 25 30 29 30 32 36 39 41 42 43 42 46 45 42 42 47 52 56 61
28 34 38 43 42 39 39 44 46 52 48 44 43 40 38 36 31 25 18 14 11 10 6 2 10 17 25 32 36 37 38 39 39 41 44 44 45 47 48 49 52 54 54
22 32 40 44 43 42 41 42 42 41 39 40 40 41 39 36 30 27 22 16 11 8 6 5 3 4 10 19 27 35 39 38 41 43 44 42 45 48 49 51 51 50 45
22 29 35 41 43 43 44 43 43 38 35 32 31 30 30 30 28 25 23 19 17 12 10 7 5 3 3 4 5 10 18 23 28 33 37 41 44 46 47 47 43 43 43
16 25 32 39 42 43 42 41 39 38 36 30 27 26 24 24 23 25 25 23 20 17 13 11 8 6 3 3 8 11 13 15 19 23 27 31 34 38 40 39 36 40 39
11 18 26 33 37 38 37 35 32 31 31 31 31 29 25 22 22 23 22 22 22 22 20 16 13 9 6 7 7 10 10 9 13 18 23 28 32 36 37 41 41 35 36
7 13 18 25 29 32 32 30 30 29 28 29 29 29 26 23 21 18 17 20 19 18 16 17 16 15 13 13 13 15 12 10 9 10 15 23 28 33 37 39 38 37 37
Wind_Direction_500mb
270 267 265 268 264 254 254 251 248 249 250 250 245 231 231 235 239 236 236 238 232 228 222 199 200 192 196 193 191 191 195 190 186 184 184 189 197 203 205 206 210 212 215
293 276 269 269 267 258 247 246 244 248 250 245 247 232 228 230 225 235 232 232 236 231 209 194 190 200 200 198 196 196 190 191 187 185 180 183 199 210 213 213 212 216 217
323 313 301 279 270 260 254 251 243 245 249 245 244 236 226 228 225 221 228 224 234 232 212 202 195 193 213 197 195 200 198 192 192 191 184 171 201 208 217 216 219 221 223
326 322 314 292 267 266 261 253 248 242 244 243 241 232 219 211 214 216 222 222 220 227 201 194 195 199 198 202 200 201 202 201 194 191 195 196 197 182 201 218 221 224 226
324 320 316 306 276 264 265 258 249 245 239 243 239 226 222 211 216 210 217 226 215 214 208 197 196 197 198 205 205 204 203 204 204 201 199 195 184 186 176 190 217 223 226
324 322 319 313 288 265 259 257 248 244 230 234 235 222 218 210 205 208 211 218 218 216 217 211 207 200 198 206 210 208 206 207 209 210 210 211 208 199 192 169 177 209 225
326 325 328 319 312 276 255 252 248 238 219 227 228 221 220 209 209 205 202 201 206 217 221 217 211 207 210 209 209 208 211 210 211 211 215 218 222 225 223 225 221 213 221
331 330 341 327 315 303 261 245 239 226 211 213 220 217 217 215 217 212 205 226 250 236 223 226 221 217 208 210 214 211 211 213 214 215 214 220 224 227 231 232 229 221 222
334 336 342 346 333 316 287 241 218 212 202 204 214 218 216 217 214 209 208 210 217 226 224 219 217 227 241 229 217 213 212 213 219 220 220 221 224 227 231 235 237 236 231
340 348 352 352 352 331 299 194 190 193 192 194 209 207 215 215 218 213 209 209 214 208 198 195 207 227 220 260 235 221 219 220 218 219 224 225 228 230 233 235 238 240 240
344 354 5 6 14 19 74 111 143 162 170 185 188 200 202 206 207 210 205 209 202 209 204 203 212 221 233 218 230 241 237 223 223 223 224 224 228 230 232 235 237 239 241
352 7 16 16 25 45 68 82 102 133 136 158 167 180 191 190 189 194 207 201 211 221 216 212 207 231 229 227 232 234 248 245 237 228 228 226 227 231 234 237 241 242 242
3 12 24 23 30 47 64 78 83 98 110 126 137 144 149 167 176 181 191 202 203 220 218 222 214 217 230 231 234 244 242 237 244 243 235 232 226 229 232 235 237 243 239
5 14 26 25 35 46 65 69 78 87 93 108 119 139 134 147 165 171 178 190 193 216 225 233 228 221 229 233 232 251 241 237 245 247 254 247 238 233 232 235 238 242 241
9 16 23 27 36 48 62 74 78 81 85 98 110 112 131 149 163 172 178 194 212 228 230 235 230 250 226 235 238 233 242 233 243 238 236 241 237 237 238 242 238 238 240
10 18 24 29 36 46 57 66 73 73 77 85 88 93 105 122 132 150 187 203 209 207 216 216 230 218 232 241 237 227 237 236 246 247 256 252 245 241 241 243 244 242 241
16 19 23 29 36 43 50 60 68 75 77 79 80 82 81 82 91 124 162 181 194 206 226 224 232 234 235 241 237 232 236 235 243 241 249 243 245 247 251 247 244 243 241
23 24 27 33 39 50 56 61 67 71 73 72 72 72 73 77 79 90 140 210 227 220 209 208 220 222 230 236 242 238 245 239 232 233 241 238 239 237 239 243 245 245 244
34 34 33 36 39 44 49 56 63 67 71 70 70 68 68 70 73 73 79 99 237 249 250 245 235 236 232 232 234 240 241 242 242 237 232 237 237 239 236 236 239 243 243
32 33 33 36 43 45 47 53 56 56 57 57 58 59 59 58 60 60 60 60 65 84 232 247 254 251 247 244 243 238 235 237 235 233 232 232 229 233 234 235 237 242 245
35 33 31 33 37 40 43 48 53 56 55 54 52 51 50 50 50 50 53 53 50 47 39 267 244 244 243 245 244 245 242 242 242 242 239 237 238 237 239 242 243 247 244
35 30 29 32 34 37 40 43 46 48 49 49 46 43 42 41 36 36 35 34 39 39 37 33 356 282 247 245 242 240 245 244 244 244 245 242 241 240 240 242 242 243 238
36 29 28 30 32 36 38 39 41 41 41 41 43 44 41 36 35 31 26 22 21 17 15 7 5 356 308 222 208 199 220 230 233 237 238 236 236 236 234 231 230 225 224
37 33 30 29 30 31 32 34 36 35 36 34 32 32 32 32 31 26 19 14 11 10 3 353 345 336 348 184 200 198 209 226 237 236 230 226 223 220 218 212 208 216 218
31 28 28 26 24 23 24 26 27 28 28 28 25 21 17 15 13 10 12 13 3 358 355 349 338 323 295 248 230 229 223 223 221 220 216 214 210 206 199 202 206 207 210
18 9 14 20 18 17 17 15 11 9 7 10 11 10 8 1 355 357 359 352 355 352 340 336 327 319 304 281 251 236 230 220 216 206 207 200 196 196 196 199 197 199 201
Wind_Speed_850mb
85 84 88 89 91 84 78 87 100 78 64 54 61 81 86 86 83 88 89 91 95 98 104 99 95 84 96 87 86 88 87 78 75 70 56 49 46 44 45 43 40 37 34
59 71 78 84 87 89 86 75 91 97 71 63 54 77 74 79 78 78 84 88 80 82 96 89 68 85 92 97 96 98 92 80 73 69 63 42 41 46 47 45 43 41 39
56 62 60 67 86 77 73 72 84 100 84 64 57 68 68 75 75 79 81 91 80 73 115 75 82 83 94 106 102 100 94 92 82 68 46 29 23 51 52 50 47 45 42
60 63 73 69 79 90 83 77 71 80 88 69 58 69 73 69 77 84 78 88 95 73 104 91 92 80 85 99 102 102 98 92 91 83 68 49 33 29 30 55 53 51 47
58 66 65 68 60 71 79 70 69 68 76 72 57 67 76 74 74 73 72 73 90 83 103 107 94 91 90 90 102 104 99 90 90 90 84 55 38 38 24 25 54 57 48
61 64 54 60 53 54 59 62 63 59 71 67 57 66 72 75 71 70 79 77 82 83 91 95 94 109 91 98 108 106 98 95 89 83 79 77 66 47 34 25 23 27 37
60 64 57 51 46 37 41 55 60 58 62 63 62 64 72 72 68 65 69 59 65 62 75 85 96 95 100 115 115 105 96 93 89 83 76 72 66 54 46 35 25 23 24
61 62 53 46 42 35 32 36 50 56 60 57 58 61 72 69 62 62 46 26 34 47 49 58 67 83 87 89 97 99 94 91 87 84 78 71 67 60 52 42 34 27 27
60 58 50 42 36 27 19 21 30 48 60 61 51 57 66 70 67 69 49 34 42 53 39 49 56 51 57 72 83 94 94 85 84 79 76 72 68 63 57 51 45 38 30
62 60 49 40 30 16 4 12 19 37 55 62 53 60 58 66 64 63 59 54 51 51 47 45 28 24 36 37 73 82 82 82 77 76 72 72 67 63 59 56 52 47 42
62 60 50 42 31 16 15 19 23 32 40 48 58 55 60 57 51 42 40 37 41 46 56 43 33 34 43 38 48 76 65 79 78 77 72 64 60 63 66 62 59 55 50
61 59 50 47 40 30 26 34 35 40 46 49 55 54 58 58 50 42 30 33 28 26 26 32 32 32 53 56 61 57 72 54 77 79 76 71 63 63 64 64 62 60 52
61 59 54 55 47 38 35 39 41 42 45 48 53 52 50 52 47 38 31 28 21 23 24 27 39 54 38 34 44 47 53 79 70 64 78 76 68 67 65 64 62 61 58
56 57 55 54 51 47 46 43 45 40 39 39 42 41 38 36 36 38 35 29 29 27 26 33 31 44 47 47 34 35 40 49 59 57 68 77 75 66 59 61 61 57 60
57 55 53 53 53 53 54 52 53 43 40 39 38 35 29 30 30 29 31 31 34 33 31 29 34 33 48 53 50 48 46 36 41 47 48 60 66 63 54 55 59 59 60
51 50 49 51 53 52 53 55 62 54 51 45 40 29 21 18 19 18 19 21 29 26 37 37 36 45 49 47 49 55 52 48 46 42 44 45 47 50 53 54 56 57 60
47 48 46 46 47 51 52 56 57 55 56 55 48 41 31 22 14 10 10 11 10 13 28 26 42 52 46 49 49 49 55 58 55 57 52 55 49 46 48 50 55 56 61
41 45 47 47 47 46 48 49 53 55 55 54 52 47 39 33 22 11 5 11 12 14 12 18 23 27 38 45 40 45 44 46 59 51 50 45 49 51 50 51 56 58 59
29 34 38 42 45 50 51 51 51 54 56 55 49 43 39 34 28 25 18 7 6 19 22 18 17 21 21 30 35 39 41 39 41 41 55 56 51 52 50 53 55 56 60
29 35 38 37 38 43 46 47 53 54 58 53 49 43 37 33 31 26 20 15 10 2 8 18 25 30 29 30 32 36 39 41 42 43 42 46 45 42 42 47 52 56 61
28 34 38 43 42 39 39 44 46 52 48 44 43 40 38 36 31 25 18 14 11 10 6 2 10 17 25 32 36 37 38 39 39 41 44 44 45 47 48 49 52 54 54
22 32 40 44 43 42 41 42 42 41 39 40 40 41 39 36 30 27 22 16 11 8 6 5 3 4 10 19 27 35 39 38 41 43 44 42 45 48 49 51 51 50 45
22 29 35 41 43 43 44 43 43 38 35 32 31 30 30 30 28 25 23 19 17 12 10 7 5 3 3 4 5 10 18 23 28 33 37 41 44 46 47 47 43 43 43
16 25 32 39 42 43 42 41 39 38 36 30 27 26 24 24 23 25 25 23 20 17 13 11 8 6 3 3 8 11 13 15 19 23 27 31 34 38 40 39 36 40 39
11 18 26 33 37 38 37 35 32 31 31 31 31 29 25 22 22 23 22 22 22 22 20 16 13 9 6 7 7 10 10 9 13 18 23 28 32 36 37 41 41 35 36
7 13 18 25 29 32 32 30 30 29 28 29 29 29 26 23 21 18 17 20 19 18 16 17 16 15 13 13 13 15 12 10 9 10 15 23 28 33 37 39 38 37 37
Wind_Direction_850mb
270 267 265 268 264 254 254 251 248 249 250 250 245 231 231 235 239 236 236 238 232 228 222 199 200 192 196 193 191 191 195 190 186 184 184 189 197 203 205 206 210 212 215
293 276 269 269 267 258 247 246 244 248 250 245 247 232 228 230 225 235 232 232 236 231 209 194 190 200 200 198 196 196 190 191 187 185 180 183 199 210 213 213 212 216 217
323 313 301 279 270 260 254 251 243 245 249 245 244 236 226 228 225 221 228 224 234 232 212 202 195 193 213 197 195 200 198 192 192 191 184 171 201 208 217 216 219 221 223
326 322 314 292 267 266 261 253 248 242 244 243 241 232 219 211 214 216 222 222 220 227 201 194 195 199 198 202 200 201 202 201 194 191 195 196 197 182 201 218 221 224 226
324 320 316 306 276 264 265 258 249 245 239 243 239 226 222 211 216 210 217 226 215 214 208 197 196 197 198 205 205 204 203 204 204 201 199 195 184 186 176 190 217 223 226
324 322 319 313 288 265 259 257 248 244 230 234 235 222 218 210 205 208 211 218 218 216 217 211 207 200 198 206 210 208 206 207 209 210 210 211 208 199 192 169 177 209 225
326 325 328 319 312 276 255 252 248 238 219 227 228 221 220 209 209 205 202 201 206 217 221 217 211 207 210 209 209 208 211 210 211 211 215 218 222 225 223 225 221 213 221
331 330 341 327 315 303 261 245 239 226 211 213 220 217 217 215 217 212 205 226 250 236 223 226 221 217 208 210 214 211 211 213 214 215 214 220 224 227 231 232 229 221 222
334 336 342 346 333 316 287 241 218 212 202 204 214 218 216 217 214 209 208 210 217 226 224 219 217 227 241 229 217 213 212 213 219 220 220 221 224 227 231 235 237 236 231
340 348 352 352 352 331 299 194 190 193 192 194 209 207 215 215 218 213 209 209 214 208 198 195 207 227 220 260 235 221 219 220 218 219 224 225 228 230 233 235 238 240 240
344 354 5 6 14 19 74 111 143 162 170 185 188 200 202 206 207 210 205 209 202 209 204 203 212 221 233 218 230 241 237 223 223 223 224 224 228 230 232 235 237 239 241
352 7 16 16 25 45 68 82 102 133 136 158 167 180 191 190 189 194 207 201 211 221 216 212 207 231 229 227 232 234 248 245 237 228 228 226 227 231 234 237 241 242 242
3 12 24 23 30 47 64 78 83 98 110 126 137 144 149 167 176 181 191 202 203 220 218 222 214 217 230 231 234 244 242 237 244 243 235 232 226 229 232 235 237 243 239
5 14 26 25 35 46 65 69 78 87 93 108 119 139 134 147 165 171 178 190 193 216 225 233 228 221 229 233 232 251 241 237 245 247 254 247 238 233 232 235 238 242 241
9 16 23 27 36 48 62 74 78 81 85 98 110 112 131 149 163 172 178 194 212 228 230 235 230 250 226 235 238 233 242 233 243 238 236 241 237 237 238 242 238 238 240
10 18 24 29 36 46 57 66 73 73 77 85 88 93 105 122 132 150 187 203 209 207 216 216 230 218 232 241 237 227 237 236 246 247 256 252 245 241 241 243 244 242 241
16 19 23 29 36 43 50 60 68 75 77 79 80 82 81 82 91 124 162 181 194 206 226 224 232 234 235 241 237 232 236 235 243 241 249 243 245 247 251 247 244 243 241
23 24 27 33 39 50 56 61 67 71 73 72 72 72 73 77 79 90 140 210 227 220 209 208 220 222 230 236 242 238 245 239 232 233 241 238 239 237 239 243 245 245 244
34 34 33 36 39 44 49 56 63 67 71 70 70 68 68 70 73 73 79 99 237 249 250 245 235 236 232 232 234 240 241 242 242 237 232 237 237 239 236 236 239 243 243
32 33 33 36 43 45 47 53 56 56 57 57 58 59 59 58 60 60 60 60 65 84 232 247 254 251 247 244 243 238 235 237 235 233 232 232 229 233 234 235 237 242 245
35 33 31 33 37 40 43 48 53 56 55 54 52 51 50 50 50 50 53 53 50 47 39 267 244 244 243 245 244 245 242 242 242 242 239 237 238 237 239 242 243 247 244
35 30 29 32 34 37 40 43 46 48 49 49 46 43 42 41 36 36 35 34 39 39 37 33 356 282 247 245 242 240 245 244 244 244 245 242 241 240 240 242 242 243 238
36 29 28 30 32 36 38 39 41 41 41 41 43 44 41 36 35 31 26 22 21 17 15 7 5 356 308 222 208 199 220 230 233 237 238 236 236 236 234 231 230 225 224
37 33 30 29 30 31 32 34 36 35 36 34 32 32 32 32 31 26 19 14 11 10 3 353 345 336 348 184 200 198 209 226 237 236 230 226 223 220 218 212 208 216 218
31 28 28 26 24 23 24 26 27 28 28 28 25 21 17 15 13 10 12 13 3 358 355 349 338 323 295 248 230 229 223 223 221 220 216 214 210 206 199 202 206 207 210
18 9 14 20 18 17 17 15 11 9 7 10 11 10 8 1 355 357 359 352 355 352 340 336 327 319 304 281 251 236 230 220 216 206 207 200 196 196 196 199 197 199 201